User: anonymous   Login
Location: Unspecified
(0.0000°N, 0.0000°E)
Time: 08:57:17
(UTC+00:00)
Language:

APRIZESAT 8 - Orbit

View from above orbital plane
View from above orbital plane
View from above satellite
View from above satellite

Ground track
Ground track

The orbit data is extracted from the following two-line orbital elements,

1 39425U 13066K   17204.83608712 +.00000070 +00000-0 +15334-4 0  9995
2 39425 097.6253 247.2784 0052970 145.0412 215.4298 14.80953872198052
Epoch (UTC): 23 July 2017 20:03:57
Eccentricity: 0.0052970
inclination: 97.6253°
perigee height: 589 km
apogee height: 663 km
right ascension of ascending node: 247.2784°
argument of perigee: 145.0412°
revolutions per day: 14.80953872
mean anomaly at epoch: 215.4298°
orbit number at epoch: 19805

The dashed part of the orbit path shows where the satellite is in the earth's shadow,  

DLR